China Lake, CA

9:25 PM PDT on May 25, 2017 (GMT -0700)
China Lake NAWS

Weather History for KNID - July, 2013

Change the Weather History Date:

Sunday, July 28, 2013

  Actual Average Record
Temperature  
Mean Temperature 90 °F -  
Max Temperature 105 °F 100 °F 113 °F (2016)
Min Temperature 78 °F 72 °F 63 °F (2015)
Cooling Degree Days 25    
Growing Degree Days 40 (Base 50)    
Moisture  
Dew Point 56 °F    
Average Humidity 32    
Maximum Humidity 50    
Minimum Humidity 20    
Precipitation  
Precipitation 0.00 in - - ()
Sea Level Pressure  
Sea Level Pressure 29.75 in    
Wind  
Wind Speed 5 mph (NE)    
Max Wind Speed 16 mph    
Max Gust Speed 30 mph    
Visibility 10 miles    
Events      
Averages and records for this station are not official NWS values.
T = Trace of Precipitation, MM = Missing Value Source: NWS Daily Summary

Daily Weather History Graph

Daily Weather History Graph

Search for Another Location

Airport or City:

Trip Planner

Search our weather history database for the weather conditions in past years. The results will help you decide how hot, cold, wet, or windy it might be!

Date:

Astronomy

Jul. 28, 2013 Rise Set
Actual Time 5:55 AM PDT 7:58 PM PDT
Civil Twilight 5:27 AM PDT 8:26 PM PDT
Nautical Twilight 4:52 AM PDT 9:00 PM PDT
Astronomical Twilight 4:15 AM PDT 9:37 PM PDT
Moon 11:39 PM PDT (7/28) 12:27 PM PDT (7/28)
Length of Visible Light 14h 58m
Length of Day
14h 02m
Waning Gibbous, 60% of the Moon is Illuminated
Jul 28
Waning Gibbous
Jul 29
Last Quarter
Aug 6
New
Aug 14
First Quarter
Aug 20
Full

Hourly Weather History & Observations

Time (PDT) Temp. Heat Index Dew Point Humidity Pressure Visibility Wind Dir Wind Speed Gust Speed Precip Events Conditions
12:56 AM 86.0 °F 86.1 °F 61.0 °F 43% 29.78 in 10.0 mi Calm Calm - N/A   Clear
1:56 AM 82.9 °F 83.3 °F 61.0 °F 47% 29.77 in 10.0 mi South 3.5 mph - N/A   Clear
2:56 AM 81.0 °F 81.7 °F 61.0 °F 50% 29.77 in 10.0 mi Calm Calm - N/A   Clear
3:56 AM 79.0 °F - 59.0 °F 50% 29.77 in 10.0 mi WNW 3.5 mph - N/A   Clear
4:56 AM 78.1 °F - 57.9 °F 50% 29.77 in 10.0 mi Calm Calm - N/A   Clear
5:56 AM 78.1 °F - 57.9 °F 50% 29.78 in 10.0 mi SW 3.5 mph - N/A   Clear
6:56 AM 81.0 °F 81.3 °F 59.0 °F 47% 29.79 in 10.0 mi Calm Calm - N/A   Clear
7:56 AM 84.9 °F 84.4 °F 59.0 °F 41% 29.80 in 10.0 mi Calm Calm - N/A   Clear
8:56 AM 89.1 °F 87.7 °F 57.0 °F 34% 29.81 in 10.0 mi Calm Calm - N/A   Clear
9:56 AM 93.9 °F 92.6 °F 57.0 °F 29% 29.79 in 10.0 mi WSW 3.5 mph - N/A   Clear
10:56 AM 93.9 °F 92.9 °F 57.9 °F 30% 29.79 in 10.0 mi Variable 5.8 mph - N/A   Partly Cloudy
11:56 AM 99.0 °F 98.1 °F 57.9 °F 25% 29.76 in 10.0 mi ENE 6.9 mph - N/A   Clear
12:56 PM 100.9 °F 100.0 °F 57.0 °F 23% 29.73 in 10.0 mi ESE 8.1 mph - N/A   Clear
1:56 PM 102.9 °F 101.4 °F 54.0 °F 20% 29.71 in 10.0 mi SSE 10.4 mph 21.9 mph N/A   Scattered Clouds
2:45 PM 98.6 °F 97.6 °F 57.2 °F 25% 29.79 in 10.0 mi NW 16.1 mph 29.9 mph N/A   Overcast
2:56 PM 100.0 °F 99.2 °F 57.0 °F 24% 29.70 in 10.0 mi NNW 16.1 mph - N/A   Mostly Cloudy
3:56 PM 96.1 °F 95.6 °F 59.0 °F 29% 29.69 in 10.0 mi North 13.8 mph 23.0 mph N/A   Clear
4:49 PM 98.6 °F 96.4 °F 53.6 °F 22% 29.77 in 10.0 mi WNW 16.1 mph 23.0 mph N/A   Clear
4:56 PM 99.0 °F 96.5 °F 53.1 °F 21% 29.69 in 10.0 mi WNW 15.0 mph - N/A   Clear
5:56 PM 93.9 °F - 52.0 °F 24% 29.70 in 10.0 mi WNW 10.4 mph - N/A   Clear
6:56 PM 95.0 °F 92.5 °F 53.1 °F 24% 29.71 in 10.0 mi ENE 8.1 mph - N/A   Scattered Clouds
7:56 PM 93.0 °F 90.8 °F 54.0 °F 27% 29.71 in 10.0 mi East 9.2 mph - N/A   Clear
8:56 PM 90.0 °F 87.5 °F 53.1 °F 28% 29.71 in 10.0 mi East 8.1 mph - N/A   Clear
9:56 PM 89.1 °F - 50.0 °F 26% 29.73 in 10.0 mi East 12.7 mph 18.4 mph N/A   Clear
10:56 PM 87.1 °F - 43.0 °F 21% 29.75 in 10.0 mi East 10.4 mph 21.9 mph N/A   Clear
11:56 PM 84.9 °F - 46.0 °F 26% 29.76 in 10.0 mi East 6.9 mph - N/A   Clear